Precipitable_Water
0.37 0.39 0.42 0.47 0.30 0.30 0.26 0.27 0.34 0.29 0.30 0.39 0.54 0.58 0.48 0.52 0.41 0.32 0.88 1.00 1.05 1.03 1.14 1.17 1.16 1.16 1.17 1.10 1.06 1.06 1.01 0.96 0.92 0.89 0.88 0.86 0.86 0.88 0.90 0.90 0.92 0.93 0.94 0.97 1.04 1.08 1.06 1.05 1.04
0.40 0.44 0.40 0.36 0.24 0.20 0.22 0.27 0.27 0.30 0.38 0.62 0.64 0.59 0.51 0.44 0.62 0.63 0.72 0.96 1.00 1.07 1.17 1.18 1.17 1.15 1.17 1.16 1.09 1.11 1.11 1.06 0.99 0.93 0.92 0.91 0.91 0.92 0.92 0.93 0.95 0.97 0.98 1.06 1.14 1.12 1.13 1.10 1.04
0.42 0.42 0.27 0.25 0.25 0.21 0.22 0.27 0.30 0.35 0.42 0.48 0.53 0.72 0.62 0.54 0.66 0.68 0.84 0.93 1.04 1.06 1.18 1.21 1.23 1.18 1.16 1.17 1.13 1.10 1.14 1.12 1.05 0.98 0.95 0.95 0.93 0.93 0.92 0.92 0.94 0.99 1.04 1.08 1.10 1.13 1.14 1.18 1.19
0.35 0.32 0.27 0.19 0.19 0.24 0.25 0.27 0.30 0.33 0.40 0.56 0.61 0.51 0.74 0.91 0.83 0.86 0.94 0.94 0.99 1.05 1.16 1.20 1.22 1.23 1.17 1.17 1.17 1.13 1.15 1.17 1.11 1.02 0.95 0.95 0.95 0.94 0.94 0.94 0.97 1.01 1.05 1.10 1.07 1.05 1.05 1.18 1.27
0.31 0.24 0.15 0.14 0.19 0.22 0.25 0.28 0.30 0.30 0.34 0.49 0.53 0.50 0.55 0.86 1.03 0.99 0.92 0.95 0.93 1.01 1.14 1.23 1.28 1.27 1.21 1.19 1.21 1.19 1.18 1.19 1.18 1.08 0.99 0.97 0.98 0.96 0.96 0.97 0.98 1.00 1.03 1.05 1.03 1.01 1.03 1.07 1.14
0.20 0.20 0.12 0.11 0.15 0.20 0.25 0.28 0.30 0.30 0.34 0.40 0.47 0.48 0.55 0.90 0.92 0.95 0.94 0.92 1.03 1.00 1.10 1.15 1.23 1.31 1.25 1.21 1.23 1.25 1.23 1.22 1.20 1.15 1.06 1.01 1.00 0.98 0.99 1.01 1.02 0.99 0.98 0.98 0.97 0.98 0.99 1.01 1.03
0.17 0.15 0.12 0.13 0.14 0.18 0.24 0.30 0.27 0.29 0.32 0.31 0.55 0.40 0.57 0.74 0.92 0.97 0.90 0.94 1.00 1.07 1.09 1.13 1.20 1.25 1.26 1.22 1.25 1.29 1.28 1.26 1.23 1.21 1.13 1.07 1.03 1.01 1.03 1.05 1.07 1.07 1.03 1.02 1.01 1.04 1.04 1.04 1.03
0.21 0.17 0.13 0.14 0.13 0.15 0.25 0.27 0.28 0.27 0.28 0.35 0.53 0.33 0.37 0.66 0.92 0.94 0.89 0.89 0.97 1.03 1.06 1.11 1.18 1.21 1.24 1.22 1.26 1.30 1.32 1.32 1.30 1.28 1.22 1.14 1.06 1.05 1.06 1.08 1.09 1.10 1.11 1.09 1.07 1.08 1.12 1.12 1.13
0.24 0.14 0.11 0.12 0.13 0.15 0.24 0.24 0.28 0.29 0.27 0.29 0.33 0.41 0.52 0.64 0.84 0.84 0.79 0.79 0.87 0.97 1.02 1.11 1.17 1.22 1.24 1.19 1.26 1.29 1.33 1.34 1.35 1.37 1.35 1.29 1.18 1.10 1.10 1.11 1.12 1.14 1.12 1.14 1.16 1.16 1.18 1.18 1.18
0.18 0.13 0.12 0.16 0.17 0.17 0.22 0.25 0.27 0.26 0.25 0.26 0.28 0.46 0.54 0.61 0.67 0.66 0.65 0.62 0.72 0.81 0.93 1.07 1.16 1.21 1.28 1.29 1.26 1.33 1.34 1.35 1.37 1.37 1.36 1.34 1.28 1.23 1.15 1.14 1.15 1.15 1.16 1.17 1.20 1.23 1.25 1.25 1.24
0.20 0.13 0.16 0.17 0.19 0.22 0.21 0.24 0.28 0.24 0.22 0.26 0.25 0.27 0.43 0.51 0.57 0.58 0.59 0.61 0.62 0.81 0.94 1.05 1.13 1.24 1.29 1.33 1.33 1.36 1.41 1.36 1.35 1.36 1.35 1.37 1.31 1.28 1.23 1.19 1.19 1.21 1.22 1.21 1.23 1.22 1.24 1.26 1.28
0.15 0.18 0.19 0.20 0.23 0.23 0.21 0.24 0.23 0.24 0.23 0.28 0.28 0.29 0.38 0.42 0.50 0.52 0.56 0.60 0.67 0.78 0.93 1.04 1.14 1.19 1.29 1.39 1.41 1.37 1.44 1.46 1.33 1.33 1.34 1.31 1.28 1.25 1.21 1.18 1.17 1.19 1.21 1.19 1.20 1.20 1.20 1.23 1.29
0.18 0.18 0.20 0.23 0.24 0.24 0.25 0.22 0.23 0.22 0.25 0.30 0.30 0.29 0.27 0.37 0.50 0.58 0.65 0.72 0.78 0.77 0.89 0.99 1.13 1.16 1.24 1.32 1.44 1.47 1.40 1.48 1.48 1.37 1.36 1.34 1.30 1.24 1.28 1.17 1.16 1.18 1.21 1.19 1.18 1.17 1.20 1.21 1.23
0.20 0.20 0.19 0.22 0.22 0.23 0.21 0.21 0.24 0.21 0.25 0.24 0.29 0.35 0.37 0.37 0.47 0.58 0.65 0.66 0.77 0.81 0.87 0.99 1.08 1.16 1.24 1.25 1.38 1.49 1.51 1.48 1.49 1.47 1.38 1.38 1.35 1.30 1.32 1.26 1.31 1.14 1.22 1.23 1.28 1.24 1.19 1.19 1.23
0.20 0.15 0.17 0.17 0.17 0.18 0.22 0.18 0.17 0.21 0.30 0.32 0.37 0.43 0.43 0.44 0.45 0.44 0.53 0.62 0.73 0.84 0.93 0.95 1.05 1.16 1.20 1.23 1.31 1.46 1.53 1.50 1.46 1.43 1.42 1.42 1.40 1.35 1.32 1.34 1.32 1.29 1.23 1.29 1.31 1.33 1.37 1.31 1.28
0.17 0.17 0.12 0.14 0.18 0.20 0.21 0.14 0.16 0.29 0.36 0.37 0.39 0.44 0.46 0.48 0.51 0.51 0.52 0.59 0.68 0.79 0.90 1.00 1.07 1.10 1.16 1.21 1.29 1.37 1.53 1.54 1.47 1.47 1.47 1.44 1.43 1.40 1.38 1.37 1.42 1.39 1.35 1.35 1.34 1.34 1.37 1.36 1.33
0.17 0.10 0.11 0.13 0.16 0.16 0.18 0.14 0.20 0.30 0.31 0.36 0.39 0.42 0.45 0.49 0.50 0.51 0.54 0.56 0.60 0.70 0.83 0.96 1.06 1.06 1.12 1.21 1.28 1.32 1.42 1.53 1.54 1.48 1.44 1.41 1.41 1.42 1.42 1.42 1.42 1.42 1.40 1.40 1.41 1.43 1.46 1.40 1.37
0.10 0.12 0.13 0.11 0.14 0.19 0.18 0.18 0.23 0.27 0.30 0.34 0.35 0.40 0.43 0.44 0.46 0.52 0.56 0.59 0.60 0.65 0.74 0.90 1.01 1.07 1.13 1.22 1.27 1.34 1.39 1.50 1.56 1.46 1.41 1.38 1.38 1.41 1.38 1.38 1.41 1.43 1.38 1.40 1.43 1.47 1.49 1.49 1.47
0.14 0.14 0.12 0.15 0.17 0.17 0.18 0.21 0.19 0.19 0.22 0.29 0.34 0.35 0.41 0.46 0.50 0.56 0.63 0.67 0.71 0.59 0.66 0.78 0.87 1.00 1.06 1.10 1.11 1.17 1.19 1.36 1.46 1.40 1.40 1.41 1.43 1.44 1.43 1.38 1.37 1.40 1.34 1.37 1.43 1.50 1.41 1.47 1.52
0.15 0.14 0.13 0.15 0.17 0.18 0.18 0.18 0.21 0.23 0.26 0.28 0.32 0.40 0.48 0.49 0.52 0.59 0.69 0.76 0.76 0.66 0.67 0.82 0.91 0.96 1.03 1.10 1.14 1.21 1.28 1.38 1.41 1.39 1.41 1.46 1.47 1.50 1.55 1.45 1.36 1.41 1.43 1.47 1.47 1.49 1.46 1.48 1.54
0.15 0.14 0.14 0.15 0.19 0.22 0.21 0.19 0.20 0.25 0.33 0.36 0.43 0.49 0.50 0.50 0.53 0.64 0.76 0.80 0.81 0.74 0.73 0.86 0.94 0.98 1.07 1.11 1.14 1.19 1.29 1.29 1.29 1.31 1.36 1.44 1.53 1.56 1.53 1.45 1.44 1.49 1.57 1.52 1.52 1.53 1.52 1.45 1.51
0.14 0.21 0.21 0.21 0.20 0.14 0.27 0.16 0.23 0.27 0.30 0.37 0.43 0.47 0.49 0.52 0.65 0.77 0.82 0.80 0.82 0.85 0.91 0.95 0.98 1.00 1.07 1.14 1.14 1.16 1.14 1.13 1.27 1.34 1.40 1.47 1.55 1.52 1.56 1.57 1.54 1.54 1.51 1.46 1.44 1.57 1.60 1.56 1.40
0.18 0.27 0.25 0.25 0.22 0.25 0.27 0.24 0.27 0.31 0.29 0.33 0.40 0.44 0.50 0.60 0.71 0.77 0.83 0.85 0.87 0.91 0.91 0.96 1.01 1.04 1.09 1.12 1.16 1.19 1.20 1.27 1.33 1.42 1.40 1.43 1.42 1.45 1.47 1.55 1.51 1.36 1.35 1.38 1.38 1.42 1.43 1.42 1.33
0.28 0.28 0.32 0.31 0.29 0.20 0.26 0.26 0.21 0.25 0.27 0.34 0.41 0.47 0.54 0.64 0.73 0.78 0.82 0.89 0.87 0.92 0.94 0.96 0.95 0.99 1.08 1.14 1.17 1.20 1.21 1.21 1.21 1.24 1.26 1.31 1.32 1.52 1.53 1.47 1.38 1.34 1.31 1.32 1.29 1.37 1.36 1.31 1.31
0.30 0.26 0.17 0.17 0.20 0.15 0.26 0.26 0.25 0.33 0.34 0.38 0.41 0.46 0.57 0.68 0.74 0.78 0.78 0.74 0.82 0.88 0.92 0.94 0.95 0.93 0.99 1.00 1.02 1.08 1.11 1.12 1.12 1.18 1.21 1.23 1.25 1.29 1.29 1.21 1.19 1.24 1.30 1.29 1.31 1.26 1.25 1.35 1.25
0.26 0.26 0.17 0.14 0.15 0.15 0.29 0.23 0.27 0.36 0.41 0.43 0.46 0.50 0.60 0.70 0.79 0.80 0.76 0.68 0.70 0.75 0.81 0.83 0.82 0.84 0.90 0.92 0.94 1.01 1.05 1.08 1.10 1.13 1.17 1.13 1.15 1.17 1.21 1.11 1.19 1.14 1.11 1.23 1.27 1.19 1.19 1.29 1.20
0.28 0.25 0.32 0.23 0.26 0.21 0.23 0.27 0.35 0.41 0.40 0.44 0.48 0.55 0.59 0.71 0.78 0.76 0.75 0.76 0.71 0.73 0.81 0.84 0.85 0.85 0.88 0.89 0.92 0.94 0.96 0.98 0.98 1.00 1.01 1.02 1.04 1.05 1.04 1.08 1.05 1.07 1.12 1.14 1.15 1.12 1.10 1.15 1.16
0.27 0.37 0.27 0.30 0.19 0.18 0.22 0.26 0.26 0.33 0.35 0.43 0.49 0.55 0.64 0.73 0.77 0.76 0.78 0.79 0.82 0.85 0.86 0.88 0.89 0.85 0.84 0.83 0.83 0.83 0.83 0.85 0.86 0.86 0.83 0.86 0.93 0.93 0.97 0.99 1.02 1.03 1.06 1.14 1.05 1.06 1.07 1.08 1.09
0.29 0.30 0.33 0.35 0.32 0.23 0.21 0.21 0.35 0.36 0.41 0.47 0.57 0.64 0.69 0.73 0.75 0.78 0.83 0.89 0.93 0.95 0.94 0.93 0.92 0.91 0.88 0.87 0.85 0.82 0.80 0.80 0.80 0.78 0.79 0.82 0.83 0.88 0.90 0.92 0.96 0.99 1.02 0.99 1.04 1.02 1.00 1.00 0.98
0.38 0.32 0.33 0.30 0.29 0.36 0.31 0.23 0.43 0.46 0.51 0.56 0.60 0.69 0.76 0.78 0.81 0.85 0.87 0.93 0.95 0.96 0.97 0.96 0.97 0.97 0.98 0.97 0.92 0.86 0.81 0.79 0.76 0.76 0.77 0.79 0.79 0.81 0.83 0.88 0.91 0.95 0.95 1.02 0.99 0.97 0.98 0.97 0.95
Wind_Speed
4 3 4 2 1 1 2 2 3 5 6 6 7 6 7 9 8 8 10 6 7 4 2 0 1 2 2 4 4 4 4 4 5 5 6 6 7 7 8 8 9 9 9 9 9 9 9 9 10
4 4 3 2 1 1 4 3 4 3 5 4 6 7 8 8 9 10 10 7 7 4 2 1 1 3 3 4 5 4 4 3 4 4 5 5 6 6 7 7 8 9 9 9 9 9 9 9 9
5 5 4 3 2 2 4 4 5 4 4 5 5 6 6 7 8 7 10 6 8 5 3 3 2 3 5 5 6 5 5 4 3 3 3 4 4 5 6 6 7 8 8 8 8 8 8 8 8
6 6 5 4 5 6 6 7 6 6 4 5 5 5 6 7 8 9 8 6 8 6 5 4 4 4 6 7 7 7 6 4 3 3 3 3 3 4 4 5 5 6 6 7 7 7 7 6 6
7 6 5 5 8 7 8 8 7 6 6 6 6 5 7 8 8 8 7 7 8 7 6 6 6 6 7 9 9 9 8 7 5 4 3 3 3 3 3 3 4 3 4 4 5 5 5 4 4
8 7 6 8 9 9 9 8 7 7 6 7 7 6 8 8 8 8 8 8 8 7 8 8 8 8 8 10 11 11 10 9 7 5 5 4 3 3 3 2 2 2 2 2 3 3 3 2 1
9 8 10 9 10 10 9 9 6 7 8 9 6 8 11 9 9 9 8 9 9 8 9 10 10 9 10 12 13 13 12 11 9 7 6 6 5 5 4 3 2 2 1 1 1 1 0 0 1
11 9 10 11 10 11 10 9 8 8 9 10 9 10 11 11 9 9 9 9 9 9 11 12 10 9 10 13 15 15 15 14 12 9 8 7 7 6 6 5 4 3 3 3 3 2 2 3 3
12 10 11 12 11 12 11 10 12 12 11 13 12 12 13 11 10 11 11 11 11 11 11 11 11 10 10 12 16 17 17 16 14 12 10 9 8 8 7 7 6 6 5 5 5 5 4 5 5
13 11 14 13 13 13 14 14 15 14 15 15 14 13 13 12 13 12 13 12 12 13 12 12 11 11 10 12 16 18 19 18 17 15 13 12 10 10 9 9 8 8 7 7 7 7 7 7 7
14 15 14 14 15 15 17 18 17 17 16 17 17 18 16 16 16 16 16 16 15 14 13 13 12 12 11 11 14 17 19 20 19 17 16 14 13 12 11 11 10 10 10 9 10 10 10 9 9
16 16 15 15 14 16 17 19 20 19 19 20 21 19 20 19 19 18 18 17 16 15 15 14 14 12 12 11 12 15 19 21 21 20 18 17 16 15 14 13 13 12 12 11 12 12 12 12 12
17 17 17 17 18 19 19 20 21 22 22 23 22 22 22 20 19 18 18 18 18 17 17 17 15 14 13 13 13 15 17 20 21 21 20 19 18 18 17 16 15 15 15 14 14 14 14 14 14
16 17 19 19 19 20 20 21 19 20 21 22 21 19 18 18 19 19 19 20 21 20 19 18 18 16 15 14 15 16 16 18 20 22 22 21 20 19 18 18 18 18 17 17 17 17 17 17 17
18 18 19 19 19 21 19 22 20 22 19 18 17 18 17 17 18 20 22 23 24 24 22 21 20 19 18 16 15 16 16 17 18 20 22 22 22 21 20 20 19 19 19 19 19 19 19 19 20
17 17 17 17 16 18 17 21 20 18 18 20 19 19 20 20 20 21 23 25 26 26 25 23 22 21 19 18 16 16 17 17 17 18 21 22 23 22 22 21 21 21 20 21 21 21 21 21 21
17 19 19 19 19 19 20 22 20 18 21 22 22 22 22 23 25 26 27 27 27 26 25 25 24 23 20 19 17 17 18 17 17 18 19 20 22 23 23 23 23 23 23 23 23 23 23 23 23
19 20 20 20 17 18 22 25 23 24 24 24 25 25 26 27 31 31 31 30 28 26 25 25 24 23 21 19 18 18 18 18 18 18 18 19 20 22 23 24 24 24 25 25 25 26 26 26 25
20 21 22 20 20 21 24 27 31 28 27 26 27 27 29 32 31 30 32 32 30 29 25 24 22 22 20 19 18 17 18 18 18 18 19 19 20 20 22 23 24 25 26 26 27 27 27 26 26
26 27 26 24 24 24 29 31 30 28 27 27 28 29 31 29 31 31 30 26 23 23 20 18 19 19 19 19 18 16 17 18 18 19 19 19 19 20 21 22 24 25 25 26 27 28 28 29 28
27 27 24 25 24 27 29 32 28 27 26 26 26 28 29 29 29 26 20 17 14 13 15 15 16 16 17 17 17 16 16 16 18 18 19 20 21 21 22 23 24 26 28 28 29 30 31 29 29
28 25 28 26 22 24 22 28 28 27 28 25 26 28 27 26 21 17 15 13 10 9 10 12 14 15 16 16 17 18 18 18 18 20 21 22 22 23 24 25 27 29 30 30 31 32 32 32 32
26 22 23 22 23 26 25 27 28 22 23 27 24 25 25 21 17 14 13 11 10 9 10 11 12 14 15 16 17 17 18 18 20 21 22 23 24 24 25 27 28 29 31 32 33 34 34 34 34
24 22 22 21 22 27 25 25 25 23 24 24 23 23 23 19 17 15 13 11 10 9 10 11 12 12 14 14 15 17 19 20 21 23 24 25 26 27 28 28 29 30 30 32 33 35 37 36 37
24 20 20 21 22 29 26 28 33 25 25 25 25 24 22 20 18 17 16 14 12 11 11 11 12 12 13 13 14 17 19 20 22 24 25 27 28 29 30 30 30 31 31 32 34 34 36 36 37
27 25 23 23 24 27 24 27 29 30 27 27 27 26 23 20 20 19 17 16 14 13 12 13 13 13 13 14 15 17 18 20 22 24 26 28 29 31 31 30 32 33 34 34 34 35 36 37 37
26 30 28 26 26 27 30 33 34 31 31 28 26 25 22 21 21 21 19 18 16 15 15 15 15 15 15 16 16 18 20 21 23 25 26 28 30 31 32 34 34 35 36 37 37 37 36 37 37
28 25 23 25 26 28 29 31 31 27 29 29 28 25 23 21 21 21 21 20 18 18 17 17 18 18 18 18 18 19 21 23 24 26 27 28 30 32 34 36 37 38 38 38 37 37 37 36 36
28 35 28 26 27 27 29 35 31 30 29 26 23 21 20 21 21 21 21 21 21 20 20 20 20 20 21 21 22 22 23 25 26 29 31 32 32 34 36 38 39 39 40 39 38 39 37 36 36
32 32 35 28 29 31 38 44 28 29 29 24 22 21 20 20 20 21 22 22 22 23 23 23 23 24 25 26 27 28 27 28 29 31 33 35 36 38 39 40 40 41 41 41 40 39 37 36 36
Wind_Direction
262 280 279 301 305 21 328 326 319 335 1 2 16 25 29 18 16 9 5 20 22 40 44 99 199 193 172 172 155 141 119 105 99 93 90 89 88 86 85 83 81 82 84 87 92 95 98 101 102
254 276 275 273 301 322 289 298 318 328 347 31 17 10 15 14 15 17 17 11 13 18 13 343 239 217 201 191 182 170 153 131 117 109 100 96 92 92 89 89 85 82 84 87 91 95 99 104 106
254 268 265 258 254 248 272 287 297 313 329 324 348 357 355 359 0 0 359 5 6 359 347 325 279 239 218 206 200 193 182 167 150 131 122 109 102 96 95 93 91 88 86 89 92 95 100 108 112
253 263 272 258 258 271 278 289 285 301 320 331 333 344 343 342 340 342 351 351 355 349 340 318 288 259 231 217 211 207 201 194 182 164 151 133 119 108 107 100 100 95 93 91 93 95 100 109 116
254 257 266 266 264 275 286 284 274 274 303 314 325 314 325 332 336 339 342 339 342 344 333 317 294 271 243 225 218 213 210 207 202 198 184 172 155 138 127 118 112 108 103 99 94 98 101 109 118
250 251 262 262 266 277 286 286 273 281 290 296 315 312 314 319 324 327 329 329 329 331 330 321 300 274 251 231 224 219 216 214 212 212 206 200 195 187 173 158 139 132 124 117 106 101 104 107 126
239 250 248 257 267 279 283 295 290 287 290 303 288 302 308 306 311 316 317 318 318 319 325 321 306 280 257 236 228 223 220 219 218 218 218 215 212 213 212 207 203 199 199 197 188 156 142 273 279
242 248 249 261 265 269 279 290 287 293 290 295 290 295 302 303 300 305 309 308 306 308 314 320 312 287 264 242 231 226 223 222 222 223 224 223 221 223 225 228 232 235 241 247 258 264 269 284 287
241 250 252 259 254 265 272 289 281 286 285 296 295 293 298 301 293 297 301 302 299 300 305 313 311 297 271 249 235 230 226 225 225 226 227 228 229 231 233 236 241 247 251 257 262 271 280 287 291
241 243 247 255 260 268 275 278 282 284 289 285 289 292 298 294 289 287 289 290 292 295 298 301 310 304 282 257 239 232 228 227 228 230 232 233 235 237 240 243 247 252 256 260 264 269 277 287 290
240 244 252 261 264 276 278 281 277 278 280 276 283 290 291 290 286 283 282 284 284 290 294 295 301 303 286 265 242 233 230 230 231 233 234 236 238 241 243 247 250 253 256 260 265 269 274 282 286
247 251 253 263 269 278 278 281 282 275 274 278 283 287 287 284 280 279 279 281 285 287 287 290 291 295 286 267 249 237 233 232 233 235 237 238 239 241 246 250 252 255 257 262 265 270 274 277 281
246 255 259 266 274 273 277 275 278 278 276 279 283 286 283 281 276 277 277 280 282 283 283 282 282 287 285 271 254 243 239 235 235 236 237 239 241 245 248 251 254 256 260 263 266 269 273 275 278
252 258 264 267 269 273 274 279 281 279 280 280 283 283 285 283 277 280 280 280 281 279 279 277 275 278 279 268 254 246 242 239 238 238 238 241 243 247 252 250 255 258 260 264 267 270 273 276 277
258 267 271 266 270 271 272 280 276 280 279 281 283 282 284 284 285 283 280 281 282 278 277 271 271 271 272 261 258 247 242 242 242 239 240 242 244 247 251 252 257 259 261 264 268 271 274 276 277
261 265 270 269 268 275 271 279 277 277 283 282 281 282 284 287 285 286 287 285 283 277 270 267 267 266 265 255 253 246 242 243 244 243 243 244 246 248 251 255 258 260 262 265 269 272 274 275 275
263 262 264 276 269 274 270 280 278 277 286 281 279 280 282 286 288 288 290 287 281 274 268 262 260 259 257 250 251 250 243 244 245 246 245 245 248 251 254 257 259 261 263 267 269 271 272 274 275
254 260 264 267 275 274 275 277 279 280 284 281 280 280 282 285 286 289 289 287 282 272 264 260 257 253 250 247 248 247 243 243 244 246 247 250 253 255 257 259 260 261 264 267 269 271 272 273 273
257 261 267 270 274 279 273 278 280 279 278 278 278 281 285 285 288 289 290 288 280 271 264 256 249 246 240 241 242 243 239 239 242 248 251 255 260 261 262 263 263 264 265 267 270 270 270 272 269
257 264 269 275 274 272 278 276 277 276 276 274 279 285 287 288 289 290 292 288 278 267 253 246 241 235 233 237 238 241 238 242 245 249 253 256 262 266 267 267 266 266 268 269 270 270 272 272 268
255 258 266 269 279 276 282 279 274 277 275 276 283 286 289 290 290 288 290 288 280 261 238 232 228 226 230 233 233 238 238 245 248 250 255 260 265 268 271 271 270 270 270 272 272 272 271 272 271
255 257 263 270 275 275 276 282 275 276 273 277 286 291 289 293 287 279 281 279 269 250 228 222 221 222 226 229 233 237 246 249 252 253 259 265 269 272 274 276 276 275 275 274 276 276 274 274 275
255 258 259 267 268 278 274 280 282 272 271 275 286 289 292 286 273 268 270 269 254 240 228 221 220 222 227 233 237 242 248 253 257 260 264 269 271 275 278 278 279 280 277 278 279 277 277 277 276
253 262 267 270 269 272 266 270 269 268 270 279 284 289 284 277 261 257 256 256 240 232 225 223 222 225 228 234 242 248 252 257 261 265 268 272 274 277 281 281 281 282 281 279 281 279 279 278 278
248 257 268 271 266 268 266 268 268 274 274 276 285 284 279 268 251 246 245 240 237 234 227 222 221 226 233 243 255 259 262 264 267 270 273 276 277 279 279 281 283 283 283 283 285 282 282 278 280
245 245 253 259 266 274 271 268 274 269 270 278 283 281 273 258 243 240 239 231 232 225 225 227 230 235 241 252 263 266 267 269 273 275 277 279 280 280 280 281 283 282 285 285 283 284 282 280 280
249 246 255 269 267 272 267 275 278 271 275 279 279 277 261 250 238 234 232 231 228 228 231 235 240 247 253 260 268 272 274 275 277 280 280 282 282 283 281 282 283 283 284 285 283 284 283 280 280
244 249 256 256 263 265 269 275 271 276 273 276 277 269 254 240 234 231 232 231 233 237 240 245 250 255 260 265 270 275 278 280 282 283 282 284 286 285 284 284 283 285 285 285 283 283 284 281 280
243 247 254 255 255 262 274 274 275 266 270 274 271 258 241 232 230 231 233 234 237 243 248 252 257 259 262 268 270 277 280 282 284 285 286 285 285 286 286 286 284 284 283 283 282 282 282 280 281
243 248 241 253 261 266 266 270 268 273 276 268 260 248 238 234 236 239 239 239 243 249 254 257 260 262 265 269 272 276 279 282 284 287 288 288 287 286 287 286 284 283 282 280 278 280 282 279 278